Location: Shipborne
(51.2333°N, 0.2833°E)
Time: 03:02:24
(UTC+00:00)

Daily predictions for brighter satellites

Satellite Brightness Start Highest point End
(mag) Time Altitude Azimuth Time Altitude Azimuth Time Altitude Azimuth
Cosmos 1461 2.9 00:01:04 10° NW 00:05:09 61° SW 00:06:31 39° S
Cosmos 1553 Rocket 4.0 00:03:21 28° S 00:06:42 73° E 00:12:55 10° NNE
Cosmos 1867 3.9 00:05:01 31° S 00:07:19 52° ESE 00:12:39 10° NE
Cosmos 2221 Rocket 3.6 00:06:47 36° S 00:08:30 70° E 00:12:54 10° NNE
Cosmos 1674 Rocket 4.0 00:06:56 32° SSE 00:08:34 49° E 00:12:45 10° NNE
USA 306 4.5 00:11:52 19° SE 00:11:52 19° SE 00:14:28 10° E
Cosmos 1238 Rocket 2.0 00:08:43 10° N 00:11:41 84° E 00:12:06 63° SSE
Cosmos 1674 2.6 00:10:51 45° S 00:11:55 78° E 00:15:42 10° NNE
ATLAS CENTAUR R/B 2.7 00:08:50 10° WNW 00:13:02 30° WSW 00:13:59 27° SW
SL-19 R/B 3.8 00:17:33 52° SW 00:17:52 56° WSW 00:20:45 10° NNW
Cosmos 468 4.4 00:16:23 10° NNW 00:21:38 82° WSW 00:24:28 28° SSE
ATLAS 5 CENTAUR R/B 3.4 00:06:19 10° NW 00:21:40 70° SW 00:24:40 24° SSE
CZ-4C R/B 3.1 00:14:49 10° NW 00:21:51 62° SW 00:27:53 20° SSE
Cosmos 2322 Rocket 3.7 00:16:55 10° WSW 00:21:54 32° NW 00:26:55 10° NNE
Cosmos 2333 Rocket 2.5 00:19:42 20° SW 00:23:37 65° NW 00:29:17 10° NNE
Cosmos 1378 Rocket 3.7 00:22:19 34° SSE 00:24:07 67° E 00:28:33 10° NNE
Cosmos 2322 3.7 00:20:47 25° SW 00:24:16 82° WNW 00:30:03 10° NNE
Cosmos 1844 Rocket 4.4 00:21:08 10° WNW 00:24:38 17° W 00:26:32 15° WSW
USA 215 3.3 00:20:35 10° ENE 00:27:09 83° NNW 00:33:43 10° WSW
NOSS 0 Rocket 4.3 00:29:23 27° S 00:32:39 53° ESE 00:38:41 10° NE
PSLV R/B 3.7 00:28:37 10° N 00:32:58 74° WNW 00:35:01 32° SSW
Meteor 2-10 Rocket 4.2 00:31:28 10° N 00:37:06 57° ENE 00:41:17 17° SSE
Cosmos 2151 Rocket 4.1 00:35:01 10° NNW 00:39:14 47° W 00:40:53 31° SW
Cosmos 1745 Rocket 4.0 00:34:39 10° NNW 00:40:54 76° W 00:44:35 26° S
Cosmos 839 Rocket 4.1 00:36:02 10° NW 00:42:20 76° SW 00:49:12 12° SSE
Okean 2 Rocket 3.9 00:39:18 10° NNW 00:43:30 39° W 00:45:14 27° SW
Okean 2 4.0 00:42:13 28° SW 00:43:56 45° WNW 00:47:54 10° N
ADEOS Rocket 3.9 00:42:18 22° SW 00:44:58 32° W 00:50:18 10° NNW
USA 308 3.8 00:44:46 28° SSE 00:45:15 29° SE 00:48:53 10° E
Cosmos 2219 Rocket 2.6 00:42:56 19° SW 00:46:54 57° NW 00:52:26 10° NNE
Meteor 2-12 Rocket 4.4 00:42:24 10° N 00:48:31 88° W 00:52:26 23° S
Meteor 1-16 Rocket 4.5 00:42:51 10° NNW 00:48:44 63° W 00:52:02 26° S
Cosmos 1707 4.4 00:50:02 18° WSW 00:51:51 25° WNW 00:55:07 10° NNW
GP-B 3.4 00:51:15 10° N 00:55:41 63° E 00:58:07 25° SSE
CZ-2D R/B 3.4 00:53:54 10° NNE 00:58:41 32° E 01:02:28 15° SSE
Cosmos 1300 2.6 00:56:03 10° NNW 00:59:52 84° W 01:01:27 33° S
Lacrosse 5 3.5 00:58:31 17° SSE 01:00:10 20° SE 01:03:51 10° E
ASTEX 1 4.3 00:57:53 10° N 01:02:25 39° WNW 01:05:06 21° SW
SL-14 R/B 3.2 01:02:27 34° SSW 01:04:02 78° W 01:07:55 10° N
USA 267 4.0 01:02:14 24° SSW 01:04:44 30° SW 01:10:24 10° WNW
USA 305 3.2 01:07:08 32° SSW 01:08:33 45° SE 01:12:32 10° ENE
Cosmos 371 Rocket 3.3 01:06:03 28° SSW 01:08:40 90° WNW 01:13:34 10° NNE
Cosmos 2150 Rocket 3.9 01:06:08 26° SSW 01:09:05 87° WNW 01:14:18 10° NNE
USA 229 DEB 4.2 01:02:08 10° NW 01:09:09 49° WSW 01:15:06 16° S
USA 229 4.2 01:02:14 10° NW 01:09:14 50° WSW 01:15:15 16° S
Cosmos 2237 Rocket 2.2 01:11:28 25° SSW 01:14:55 76° ESE 01:20:39 10° NNE
COSMOS 2428 3.4 01:12:17 16° WSW 01:16:38 49° NW 01:22:10 10° NNE
Cosmos 1437 Rocket 3.8 01:14:57 10° NNW 01:18:13 28° W 01:19:16 24° WSW
Cosmos 405 Rocket 3.7 01:18:03 23° WSW 01:19:44 34° WNW 01:23:14 10° N
Cosmos 304 Rocket 3.8 01:17:17 26° SSW 01:19:59 75° ESE 01:24:50 10° NNE
SL-16 R/B 2.9 01:15:24 10° SSE 01:21:33 67° ENE 01:27:45 10° NNW
Okean 1 Rocket 4.0 01:18:12 10° NNW 01:22:12 34° W 01:24:05 24° SW
Lacrosse 5 rocket 3.3 01:21:54 13° SE 01:23:02 14° SE 01:25:13 10° E
Cosmos 1125 Rocket 3.7 01:20:01 23° SW 01:23:16 67° WNW 01:28:28 10° NNE
Cosmos 1953 3.5 01:21:31 10° NNW 01:25:00 29° W 01:26:26 23° SW
SME Rocket 3.2 01:24:34 23° S 01:27:04 70° WSW 01:32:24 10° NNW
Cosmos 2074 Rocket 4.4 01:21:04 10° N 01:27:20 64° ENE 01:33:35 10° SSE
Cosmos 2360 Rocket 4.3 01:23:23 10° W 01:27:35 21° NW 01:31:49 10° NNE
Resurs 1-4 Rocket 2.6 01:22:54 10° NNE 01:28:04 54° E 01:31:56 18° S
Cosmos 2297 4.0 01:26:05 10° NNW 01:31:52 70° ENE 01:37:35 10° SE
Cosmos 1943 Rocket 2.2 01:26:12 10° NNW 01:31:55 85° ENE 01:37:37 10° SSE
USA 290 4.4 01:32:42 12° W 01:34:41 19° NW 01:37:06 10° N
Cosmos 1709 Rocket 4.3 01:29:24 10° NNW 01:35:18 49° W 01:39:17 20° SSW
MOZ.5/SAFIR/RUBIN 5/SL-8 4.1 01:33:59 23° SSW 01:36:40 49° W 01:41:18 10° NNW
Cosmos 1626 4.3 01:36:40 11° W 01:38:39 16° WNW 01:40:56 10° NNW
Cosmos 2315 Rocket 4.2 01:35:34 20° SSW 01:40:03 67° WNW 01:46:27 10° N
Cosmos 2184 Rocket 4.1 01:35:58 10° N 01:42:16 77° E 01:48:28 10° SSE
Cosmos 2278 Rocket 3.2 01:38:00 10° NW 01:42:45 28° WSW 01:45:23 20° SW
EO 1 Delta rocket 4.2 01:38:13 10° N 01:42:45 54° WNW 01:46:02 20° SW
ADEOS II 3.1 01:38:58 10° NNE 01:43:56 41° E 01:48:40 11° SSE
IDEFIX/ARIANE 42P 3.8 01:39:57 10° NNE 01:44:47 36° E 01:49:36 10° SSE
USA 306 2.8 01:47:34 19° SW 01:50:27 73° SSE 01:54:37 10° ENE
Cosmos 2084 Rocket 3.5 01:49:15 23° SSW 01:51:21 53° SE 01:55:04 10° NE
Thor Agena Rocket 3.9 01:47:06 10° N 01:52:18 60° WNW 01:56:09 18° SW
USA 307 2.8 01:51:04 19° SW 01:53:56 70° SSE 01:58:07 10° ENE
NPP 3.8 01:50:43 10° NNE 01:56:09 75° ESE 02:00:36 15° S
ERBS 1.9 01:54:54 26° SW 01:56:28 74° SSE 01:59:33 10° ENE
Cosmos 2369 Rocket 2.8 01:51:35 10° NNW 01:57:08 58° NE 02:02:39 10° SE
Gblst 52 Del rocket 4.2 01:51:55 10° W 01:57:51 87° N 02:03:23 10° E
Cosmos 1455 Rocket 3.8 01:56:24 10° NNW 02:00:32 38° W 02:03:14 19° SSW
Cosmos 614 Rocket 4.1 01:55:42 10° NNW 02:00:55 83° ENE 02:06:09 10° SSE
Cosmos 2228 4.1 01:56:55 10° N 02:01:08 44° ENE 02:05:17 10° SSE
CZ-4 R/B 3.7 01:56:29 10° NNE 02:01:10 84° WNW 02:04:41 17° SSW
EO 1 Del DPAF 4.3 01:58:56 10° NNE 02:02:13 35° E 02:05:16 11° SSE
SL-16 R/B 2.5 01:58:00 17° SSW 02:02:26 64° ESE 02:08:04 10° NE
Cosmos 2251 Rocket 4.2 01:57:40 10° NNW 02:02:52 58° ENE 02:08:04 10° SE
Cosmos 1656 Rocket 4.4 02:01:12 10° NNW 02:06:32 55° NE 02:11:51 10° SE
Cosmos 1980 4.3 02:02:27 14° SW 02:07:08 49° NW 02:12:39 10° NNE
Meteor 1-28 Rocket 3.2 02:03:47 10° SSE 02:07:31 80° ENE 02:11:16 10° NNW
Cosmos 2333 Rocket 4.4 02:05:02 10° WNW 02:09:02 19° NNW 02:13:05 10° NNE
CZ-4C R/B 4.4 02:04:54 10° WNW 02:09:34 18° WSW 02:12:59 14° SW
USA 215 4.0 02:03:33 10° ENE 02:09:54 56° N 02:16:16 10° W
COSMOS 2455 3.7 02:04:48 12° S 02:09:56 42° ESE 02:15:35 10° NE
Cosmos 332 Rocket 4.3 02:07:03 16° SW 02:10:40 51° WNW 02:15:22 10° NNE
NOSS 3 (A) 3.5 02:10:22 40° W 02:10:42 53° NW 02:12:31 10° NE
Cosmos 1536 Rocket 3.9 02:08:03 12° S 02:12:01 66° E 02:16:23 10° NNE
Cosmos 1975 Rocket 4.0 02:16:47 15° SW 02:19:56 35° WNW 02:24:04 10° N
Nadezhda 1 Rocket 4.2 02:15:12 10° S 02:21:33 79° E 02:27:51 10° NNE
Meteor 1-24 Rocket 3.9 02:17:03 15° SSW 02:21:42 61° WNW 02:27:05 10° N
MSX 4.4 02:16:18 10° NNE 02:21:59 56° E 02:27:39 10° S
UNK 4.0 02:19:09 12° S 02:23:15 49° W 02:27:46 10° NNW
Cosmos 1455 2.5 02:20:52 10° NNW 02:24:25 44° W 02:27:22 14° SSW
USA 308 2.8 02:20:30 11° WSW 02:24:33 88° NNW 02:28:46 10° ENE
Cosmos 1025 Rocket 3.9 02:23:55 15° SW 02:27:06 35° WNW 02:31:06 10° N
MOS 1 Rocket 3.3 02:23:22 11° S 02:27:18 50° W 02:31:32 10° NNW
Cosmos 1271 Rocket 2.6 02:24:27 10° NNW 02:28:16 73° W 02:32:06 10° S
Cosmos 2219 Rocket 4.4 02:28:27 10° WNW 02:32:07 17° NNW 02:35:48 10° N
Cosmos 1606 Rocket 4.1 02:27:58 10° N 02:32:22 60° ENE 02:36:42 10° SSE
CZ-2D R/B 2.7 02:33:45 10° N 02:38:55 47° WNW 02:43:47 11° SW
Lacrosse 5 1.9 02:37:42 12° SW 02:42:29 76° SE 02:47:37 10° ENE
Helios 1B rocket 4.0 02:39:26 10° NNE 02:43:06 31° E 02:46:44 10° SSE
Cosmos 2341 Rocket 4.2 02:38:39 10° N 02:45:05 80° E 02:51:29 10° SSE
USA 305 3.1 02:43:52 10° W 02:48:02 70° NNW 02:52:13 10° ENE
Cosmos 2154 Rocket 4.3 02:42:19 10° NNW 02:48:28 53° W 02:54:33 10° SSW
Meteor 2-1 Rocket 4.4 02:43:50 10° NNW 02:49:40 86° ENE 02:55:21 10° SSE
Cosmos 407 Rocket 3.7 02:45:30 10° NNW 02:50:52 80° ENE 02:56:09 10° SSE
SL-8 Rocket 4.3 02:45:28 10° N 02:51:49 75° ENE 02:58:09 10° SSE
AQUA 4.4 02:51:24 10° N 02:55:56 44° WNW 03:00:26 10° SW
Cosmos 1943 4.0 02:52:02 10° S 02:57:30 49° ESE 03:02:58 10° NE
Cosmos 1328 4.4 02:53:47 10° S 02:57:40 58° E 03:01:36 10° NNE
Helios 1A 3.7 02:54:09 10° SSW 02:58:01 35° W 03:01:56 10° NNW
Genesis I 3.3 02:54:20 10° NW 02:58:27 88° SW 03:02:27 10° SE
Cosmos 2237 Rocket 3.7 02:54:45 10° W 02:59:35 28° NW 03:04:28 10° NNE
Lacrosse 5 rocket 1.3 02:57:29 10° SW 03:01:23 71° SE 03:05:32 10° ENE
Cosmos 1140 Rocket 3.5 02:56:32 10° NNW 03:01:50 83° WSW 03:07:04 10° SSE
SL-16 R/B 3.6 03:00:29 10° SSW 03:05:39 27° W 03:10:51 10° NW
Resurs 1-4 Rocket 3.3 03:03:11 10° N 03:07:38 29° WNW 03:12:05 10° WSW
NOSS 3-4 (A) 4.4 03:02:26 10° NW 03:09:06 63° NE 03:16:40 10° ESE
NOSS 3-4 (C) 4.4 03:02:30 10° NW 03:09:10 63° NE 03:16:42 10° ESE
Lacrosse 4 Rocket 4.1 03:08:11 10° SE 03:09:54 12° ESE 03:11:36 10° E
Cosmos 1892 Rocket 4.0 03:07:03 10° S 03:11:28 66° E 03:15:56 10° NNE
Cosmos 1726 Rocket 3.6 03:07:32 10° NNW 03:11:59 73° W 03:16:21 10° S
Cosmos 1943 Rocket 3.6 03:11:05 10° WNW 03:14:58 19° W 03:18:49 10° SW
Cosmos 1703 3.8 03:11:47 10° SSW 03:15:32 43° WNW 03:19:19 10° N
Cosmos 2263 4.3 03:10:36 10° NW 03:16:09 57° WSW 03:21:43 10° S
FENGYUN 3A 4.4 03:10:56 10° NNE 03:16:14 55° E 03:21:30 10° S
